Flag for Germany Weather past 2 weeks in Göttingen, Lower Saxony, Germany

Now
88 °F

Passing clouds.


Feels Like: 88 °F
Forecast: 64 / 92 °F
Wind: 9 mph from Southeast

Location: Kassel / Calden

Current Time: Jul 2, 2015 at 12:36:08 PM

Latest Report: Jul 2, 2015 at 12:20 PM


Visibility: N/A

Pressure: 30.18 "Hg

Humidity: 43%

Dew point: 63 °F

Location of GöttingenLocation

Historic Weather in Göttingen — Graph

°F

Göttingen temperature yesterday

Maximum temperature yesterday: 86 °F (at 5:20 PM)
Minimum temperature yesterday: 59 °F (at 5:50 AM)
Average temperature yesterday: 77 °F

Past Weeks' High & Low Weather Summary

 TemperatureHumidityPressure
High86 °F (Jul 1, 5:20 PM)100% (Jun 18, 6:50 AM)30.27 "Hg (Jun 18, 6:50 AM)
Low46 °F (Jun 23, 5:50 AM)30% (Jun 22, 8:20 AM)29.68 "Hg (Jun 22, 8:20 PM)
Average63 °F67%30.06 "Hg
* Reported Jun 17 11:20 AM — Jul 2 11:20 AM, Göttingen, Weather by CustomWeather, © 2015

Note: Actual official high and low records may vary slightly from our data, if they occured in-between our weather recording intervals... More about our weather records

Advertising

Göttingen weather history for previous 24 hours

 ConditionsComfort  
Time TempWeatherWind HumidityBarometerVisibility
11:20 AM
Thu, Jul 2
84 °FPassing clouds.9 mph45%30.18 "HgN/A
10:50 AM82 °FSunny.10 mph48%30.18 "Hg10 mi
10:20 AM81 °FSunny.10 mph51%30.18 "Hg10 mi
9:50 AM79 °FPassing clouds.10 mph51%30.18 "HgN/A
9:20 AM77 °FSunny.10 mph54%30.18 "Hg10 mi
8:50 AM73 °FSunny.12 mph57%30.18 "Hg10 mi
8:20 AM72 °FSunny.8 mph61%30.18 "Hg10 mi
7:50 AM72 °FSunny.7 mph57%30.18 "Hg10 mi
7:20 AM70 °FSunny.5 mph60%30.18 "Hg10 mi
6:50 AM66 °FPassing clouds.3 mph64%30.18 "HgN/A
6:20 AM64 °FSunny.2 mph68%30.18 "Hg10 mi
5:50 AM63 °FClear.3 mph73%30.15 "Hg10 mi
10:20 PM
Wed, Jul 1
73 °FSunny.9 mph50%30.15 "Hg10 mi
9:50 PM73 °FSunny.6 mph53%30.15 "Hg10 mi
9:20 PM75 °FSunny.8 mph50%30.12 "Hg10 mi
8:50 PM79 °FSunny.7 mph48%30.12 "Hg10 mi
8:20 PM81 °FSunny.10 mph42%30.12 "Hg10 mi
7:50 PM82 °FSunny.12 mph40%30.12 "Hg10 mi
7:20 PM84 °FSunny.10 mph35%30.12 "Hg10 mi
6:50 PM84 °FSunny.10 mph35%30.12 "Hg10 mi
6:20 PM84 °FSunny.12 mph35%30.12 "Hg10 mi
5:50 PM84 °FSunny.13 mph33%30.12 "Hg10 mi
5:20 PM86 °FSunny.13 mph33%30.12 "Hg10 mi
4:50 PM84 °FSunny.12 mph35%30.12 "Hg10 mi
4:20 PM84 °FPassing clouds.12 mph33%30.12 "HgN/A
3:50 PM84 °FPassing clouds.12 mph33%30.12 "HgN/A
3:20 PM84 °FPassing clouds.12 mph33%30.15 "HgN/A
2:50 PM84 °FPassing clouds.10 mph33%30.15 "HgN/A
2:20 PM82 °FPassing clouds.10 mph35%30.15 "HgN/A
1:50 PM82 °FSunny.12 mph32%30.15 "Hg10 mi
1:20 PM81 °FSunny.12 mph34%30.15 "Hg10 mi
12:50 PM82 °FPassing clouds.12 mph37%30.15 "HgN/A
12:20 PM81 °FPassing clouds.10 mph39%30.15 "HgN/A
Weather by CustomWeather, © 2015

See weather overviewHow to use our weather pages